Location: Lawrence Hall of Science
(37.8785°N, 122.2415°W)
Time: 16:35:19
(UTC-07:00)

Cosmos 2151 - Visible Passes

Search period start: 18 April 2015 00:00
Search period end: 28 April 2015 00:00
Orbit: 584 x 605 km, 82.5° (Epoch: 17 April)

Date Brightness Start Highest point End Pass type
(mag) Time Alt. Az. Time Alt. Az. Time Alt. Az.
18 Apr 4.8 05:43:21 10° SSE 05:47:08 34° E 05:50:59 10° NNE visible
19 Apr 3.8 05:52:37 10° S 05:56:44 56° E 06:00:52 10° NNE visible
21 Apr 6.4 04:38:48 10° E 04:39:05 10° E 04:39:40 10° ENE visible
22 Apr 5.8 04:46:02 10° SE 04:48:37 16° E 04:51:20 10° NE visible
23 Apr 5.1 04:54:42 10° SE 04:58:08 26° E 05:01:41 10° NNE visible
24 Apr 4.2 05:03:46 10° SSE 05:07:41 41° E 05:11:41 10° NNE visible
25 Apr 3.3 05:13:07 10° S 05:17:17 69° E 05:21:29 10° NNE visible
26 Apr 2.9 05:22:43 10° SSW 05:26:54 73° W 05:31:07 10° N visible
27 Apr 5.9 03:57:56 10° ESE 03:59:33 12° E 04:01:26 10° ENE visible
27 Apr 3.3 05:32:33 10° SSW 05:36:34 44° W 05:40:36 10° N visible
